Location: Kailua
(21.4020°N, 157.7390°W)
Time: 07:29:34
(UTC-10:00)

Cosmos 2297 Rocket - Visible Passes

Search period start: 25 October 2014 00:00
Search period end: 04 November 2014 00:00
Orbit: 839 x 845 km, 71.0° (Epoch: 24 October)

Date Brightness Start Highest point End Pass type
(mag) Time Alt. Az. Time Alt. Az. Time Alt. Az.
25 Oct 2.5 04:22:51 57° NE 04:22:51 57° NE 04:27:20 10° NNE visible
26 Oct 3.8 04:10:00 26° NNE 04:10:00 26° NNE 04:12:19 10° NNE visible
27 Oct 4.6 03:56:44 13° NNE 03:56:44 13° NNE 03:57:17 10° NNE visible
